Regional Weather Roundup
Issued by NWS

Home | Current Version | Previous Version | Graphics & Text | Print | Product List | Glossary On
Versions: 1 2 3 4 5 6 7 8 9 10 11 12 13 14 15 16 17 18 19 20 21 22 23 24 25 26 27 28 29 30 31 32 33 34 35 36 37 38 39 40 41 42 43 44 45 46 47 48 49 50
000
ASUS45 KBOU 260907
RWRCO

WEATHER ROUNDUP FOR COLORADO
NATIONAL WEATHER SERVICE DENVER/BOULDER CO
300 AM MDT THU MAR 26 2015

NOTE: "FAIR" INDICATES FEW OR NO CLOUDS BELOW 12000 FEET WITH NO
SIGNIFICANT WEATHER AND/OR OBSTRUCTIONS TO VISIBILITY.

COZ001>005-013-030-031-261000-
...NORTHWEST COLORADO...

CITY           SKY/WX    TMP DP  RH WIND       PRES   REMARKS
CRAIG          CLEAR     26  18  71 W5        30.36R WCI  20
HAYDEN         CLEAR     27  18  69 SE3       30.35S
MEEKER         CLEAR     25  19  78 NE5       30.37R WCI  19
MOUNT WERNER   NOT AVBL
STEAMBOAT SPGS CLEAR     23  20  89 CALM      30.35S
WALDEN         CLEAR     21  12  68 SE5       30.30S WCI  15
$$

COZ006>008-011-261000-
...WEST CENTRAL VALLEYS...

CITY           SKY/WX    TMP DP  RH WIND       PRES   REMARKS
GRAND JUNCTION PTCLDY    30  16  56 CALM      30.32S
MONTROSE       CLEAR     32  18  56 SE10      30.35F WCI  24
EAGLE          PTCLDY    25  19  80 CALM      30.40R
RIFLE          CLEAR     27  17  66 CALM      30.37R
DELTA          CLEAR     36  17  45 CALM      30.34F
NUCLA          CLEAR     32  14  47 E9        30.35F WCI  24
$$

COZ017>023-064>068-261000-
...SOUTHWEST COLORADO...

CITY           SKY/WX    TMP DP  RH WIND       PRES   REMARKS
DURANGO        PTCLDY    28  13  53 MISG      30.25S
CORTEZ         CLEAR     32  13  45 E8        30.29F WCI  25
PAGOSA SPRINGS PTCLDY    29  11  47 CALM      30.26F
TELLURIDE      PTCLDY    25  12  58 SE6       30.36F WCI  18
WOLF CREEK PAS PTCLDY    18  -6  35 N7        30.34S WCI   8
$$

COZ009-010-012-014-032>034-037-058>063-261000-
...CENTRAL COLORADO...

CITY           SKY/WX    TMP DP  RH WIND       PRES   REMARKS
ASPEN          PTCLDY    20  14  77 S6        30.35R WCI  12
BUENA VISTA    PTCLDY    31   8  37 N17G23    30.26S WCI  19
COPPER MTN     MOCLDY    16   9  73 W20G28    30.30R WCI  -1
BERTHOUD PASS  LGT SNOW   7   0  72 MISG      30.21S VSB 1
COTTONWOOD PAS PTCLDY    28   5  37 NW7G21    30.26R WCI  21
GUNNISON       PTCLDY    21  10  63 CALM      30.34F
KREMMLING      PTCLDY    21  18  86 CALM      30.35R
LEADVILLE      PTCLDY    12   4  70 NE9       30.30R WCI   0
SALIDA         PTCLDY    25  20  80 NW3       30.34F
SUNLIGHT       PTCLDY    21  14  73 W3        30.39R
WILKERSON PASS PTCLDY    16   9  73 N8G25     30.26S WCI   5
$$

COZ069>075-261000-
...SAN LUIS VALLEY/SANGRE DE CRISTO MOUNTAINS...

CITY           SKY/WX    TMP DP  RH WIND       PRES   REMARKS
ALAMOSA        MOCLDY    18  12  77 CALM      30.27F
LA VETA PASS   MOCLDY    19  12  73 MISG      30.23F
SAGUACHE       PTCLDY    28  10  47 N10       30.27F WCI  19
$$

COZ035-036-038>040-261000-
...NORTHERN COLORADO FRONT RANGE...

CITY           SKY/WX    TMP DP  RH WIND       PRES   REMARKS
DENVER INTL AP PTCLDY    33  26  75 SW14      30.19F WCI  23
DMNS CITY PARK   N/A     33  23  66 SW8G15    30.20F WCI  26
AURORA         NOT AVBL
FRONT RANGE AP CLEAR     34  28  80 SW12      30.20F WCI  25
ERIE MUNI ARPT CLEAR     29  28  93 CALM      30.20S
BOULDER MUN AP CLEAR     32  30  93 CALM      30.20S
CENTENNIAL     CLEAR     31  23  72 S10       30.20F WCI  22
BROOMFIELD     CLEAR     34  25  69 NW7       30.20S WCI  28
FORT COLLINS   CLOUDY    30  28  93 N7        30.22F VSB<1/4 WCI  23
LONGMONT       CLEAR     30  28  92 CALM      30.21F
$$

COZ041-046-047-076>085-087-088-261000-
...PIKES PEAK/PALMER DIVIDE AND SOUTHERN FOOTHILLS...

CITY           SKY/WX    TMP DP  RH WIND       PRES   REMARKS
COLO. SPRINGS  MOCLDY    25  21  85 N7        30.24S WCI  17
A. F. ACADEMY  PTCLDY    20  16  84 N9        30.22S WCI   9
ELLICOTT       PTCLDY   N/A N/A N/A CALM      30.23S
FALCON         PTCLDY    23  21  91 NW6       30.23S WCI  16
FORT CARSON    PTCLDY    27  22  81 NW8       30.22F WCI  19
LIMON          CLEAR     25  24  96 N6        30.22F WCI  18
MONUMENT HILL  PTCLDY    27  18  69 SW9       30.21S WCI  17
TRINIDAD       CLEAR     27  22  81 SW14      30.26F WCI  16
$$

COZ042>045-048>051-090-091-261000-
...NORTHEAST COLORADO...

CITY           SKY/WX    TMP DP  RH WIND       PRES   REMARKS
GREELEY ARPT   CLEAR     27  19  74 CALM      30.20F
AKRON          CLEAR     31  29  92 W10       30.20S WCI  22
BURLINGTON     CLEAR     29  25  85 W6        30.22F WCI  23
WRAY           PTCLDY    30  28  93 SW7       30.21F WCI  23
STERLING       CLEAR     28  28 100 S6        30.21S WCI  22
HOLYOKE        CLEAR     32  28  86 W5        30.21S WCI  27
FORT MORGAN    CLEAR     31  29  92 W5        30.21F WCI  27
$$

COZ086-089-092>099-261000-
...SOUTHEAST COLORADO...

CITY           SKY/WX    TMP DP  RH WIND       PRES   REMARKS
PUEBLO         CLEAR     28  26  92 CALM      30.24F
LA JUNTA       CLEAR     31  28  89 SW8       30.25F WCI  23
LAMAR          CLEAR     29  27  92 SW8       30.24F WCI  21
SPRINGFIELD      N/A     29  27  92 W8        30.25F WCI  21
$$


USA.gov is the U.S. government's official web portal to all federal, state and local government web resources and services.